Time,TemperatureF,DewpointF,PressureIn,WindDirection,WindDirectionDegrees,WindSpeedMPH,WindSpeedGustMPH,Humidity,HourlyPrecipIn,Conditions,Clouds,dailyrainin,SolarRadiationWatts/m^2,SoftwareType,DateUTC
2013-02-16 00:00:00,46.5,35.7,29.98,NNE,25,6.0,6.0,66,0.00,,,0.00,0,Wunderground v.1.15,2013-02-16 05:00:00,
2013-02-16 00:02:00,46.5,35.7,29.98,NNE,23,6.0,12.0,66,0.00,,,0.00,0,Wunderground v.1.15,2013-02-16 05:02:00,
2013-02-16 00:04:00,46.7,35.9,29.98,North,354,7.0,12.0,66,0.00,,,0.00,0,Wunderground v.1.15,2013-02-16 05:04:00,
2013-02-16 00:08:00,46.7,35.9,29.98,North,352,8.0,12.0,66,0.00,,,0.00,0,Wunderground v.1.15,2013-02-16 05:08:00,
2013-02-16 00:14:00,46.7,36.3,29.98,North,0,7.0,10.0,67,0.00,,,0.00,0,Wunderground v.1.15,2013-02-16 05:14:00,
2013-02-16 00:20:00,46.7,36.7,29.98,North,359,6.0,6.0,68,0.00,,,0.00,0,Wunderground v.1.15,2013-02-16 05:20:00,
2013-02-16 00:26:00,46.7,36.7,29.98,North,359,5.0,6.0,68,0.00,,,0.00,0,Wunderground v.1.15,2013-02-16 05:26:00,
2013-02-16 00:32:00,46.5,36.5,29.98,North,352,4.0,7.0,68,0.00,,,0.00,0,Wunderground v.1.15,2013-02-16 05:32:00,
2013-02-16 00:38:00,46.4,36.4,29.98,NNW,346,4.0,7.0,68,0.00,,,0.00,0,Wunderground v.1.15,2013-02-16 05:38:00,
2013-02-16 00:44:00,46.4,36.4,29.99,North,0,5.0,6.0,68,0.00,,,0.00,0,Wunderground v.1.15,2013-02-16 05:44:00,
2013-02-16 00:50:00,46.2,36.6,29.99,North,4,5.0,7.0,69,0.00,,,0.00,0,Wunderground v.1.15,2013-02-16 05:50:00,
2013-02-16 00:56:00,46.1,36.5,29.99,North,359,4.0,7.0,69,0.00,,,0.00,0,Wunderground v.1.15,2013-02-16 05:56:00,
2013-02-16 00:58:00,46.0,36.4,29.99,NNE,20,5.0,7.0,69,0.00,,,0.00,0,Wunderground v.1.15,2013-02-16 05:58:00,
2013-02-16 01:04:00,45.7,36.5,29.99,NE,40,4.0,8.0,70,0.00,,,0.00,0,Wunderground v.1.15,2013-02-16 06:04:00,
2013-02-16 01:10:00,45.5,35.9,29.99,NE,35,5.0,5.0,69,0.00,,,0.00,0,Wunderground v.1.15,2013-02-16 06:10:00,
2013-02-16 01:16:00,45.2,35.3,29.99,North,353,6.0,11.0,68,0.00,,,0.00,0,Wunderground v.1.15,2013-02-16 06:16:00,
2013-02-16 01:22:00,45.2,34.5,29.99,NNE,17,7.0,12.0,66,0.00,,,0.00,0,Wunderground v.1.15,2013-02-16 06:22:00,
2013-02-16 01:28:00,45.1,34.0,29.99,North,8,6.0,12.0,65,0.00,,,0.00,0,Wunderground v.1.15,2013-02-16 06:28:00,
2013-02-16 01:34:00,45.1,34.0,29.98,North,359,6.0,7.0,65,0.00,,,0.00,0,Wunderground v.1.15,2013-02-16 06:34:00,
2013-02-16 01:40:00,44.9,33.8,29.98,North,0,7.0,7.0,65,0.00,,,0.00,0,Wunderground v.1.15,2013-02-16 06:40:00,
2013-02-16 01:46:00,44.9,33.8,29.98,NW,313,6.0,7.0,65,0.00,,,0.00,0,Wunderground v.1.15,2013-02-16 06:46:00,
2013-02-16 01:52:00,44.8,33.7,29.98,North,359,5.0,5.0,65,0.00,,,0.00,0,Wunderground v.1.15,2013-02-16 06:52:00,
2013-02-16 01:58:00,44.8,33.7,29.98,NNE,24,5.0,6.0,65,0.00,,,0.00,0,Wunderground v.1.15,2013-02-16 06:58:00,
2013-02-16 02:04:00,44.6,33.2,29.97,NE,35,5.0,6.0,64,0.00,,,0.00,0,Wunderground v.1.15,2013-02-16 07:04:00,
2013-02-16 02:10:00,44.6,33.2,29.97,North,354,5.0,5.0,64,0.00,,,0.00,0,Wunderground v.1.15,2013-02-16 07:10:00,
2013-02-16 02:16:00,44.5,33.1,29.97,NNW,336,5.0,6.0,64,0.00,,,0.00,0,Wunderground v.1.15,2013-02-16 07:16:00,
2013-02-16 02:22:00,44.5,33.1,29.97,North,357,4.0,5.0,64,0.00,,,0.00,0,Wunderground v.1.15,2013-02-16 07:22:00,
2013-02-16 02:28:00,44.3,32.9,29.97,North,7,4.0,6.0,64,0.00,,,0.00,0,Wunderground v.1.15,2013-02-16 07:28:00,
2013-02-16 02:34:00,44.3,32.9,29.97,NNW,346,5.0,7.0,64,0.00,,,0.00,0,Wunderground v.1.15,2013-02-16 07:34:00,
2013-02-16 02:40:00,44.2,32.8,29.97,North,0,4.0,4.0,64,0.00,,,0.00,0,Wunderground v.1.15,2013-02-16 07:40:00,
2013-02-16 02:46:00,44.2,33.2,29.97,North,359,4.0,7.0,65,0.00,,,0.00,0,Wunderground v.1.15,2013-02-16 07:46:00,
2013-02-16 02:52:00,44.1,32.7,29.97,North,356,4.0,4.0,64,0.00,,,0.00,0,Wunderground v.1.15,2013-02-16 07:52:00,
2013-02-16 02:58:00,44.1,32.7,29.97,North,10,4.0,6.0,64,0.00,,,0.00,0,Wunderground v.1.15,2013-02-16 07:58:00,
2013-02-16 03:04:00,44.1,32.7,29.97,North,0,5.0,5.0,64,0.00,,,0.00,0,Wunderground v.1.15,2013-02-16 08:04:00,
2013-02-16 03:10:00,44.1,32.7,29.97,North,0,5.0,5.0,64,0.00,,,0.00,0,Wunderground v.1.15,2013-02-16 08:10:00,
2013-02-16 03:16:00,43.9,32.9,29.96,North,353,4.0,5.0,65,0.00,,,0.00,0,Wunderground v.1.15,2013-02-16 08:16:00,
2013-02-16 03:22:00,43.9,32.5,29.96,North,359,4.0,5.0,64,0.00,,,0.00,0,Wunderground v.1.15,2013-02-16 08:22:00,
2013-02-16 03:28:00,43.9,32.9,29.96,North,356,4.0,6.0,65,0.00,,,0.00,0,Wunderground v.1.15,2013-02-16 08:28:00,
2013-02-16 03:34:00,43.8,32.8,29.96,NW,309,4.0,4.0,65,0.00,,,0.00,0,Wunderground v.1.15,2013-02-16 08:34:00,
2013-02-16 03:40:00,43.8,32.8,29.96,NNW,336,4.0,4.0,65,0.00,,,0.00,0,Wunderground v.1.15,2013-02-16 08:40:00,
2013-02-16 03:46:00,43.8,32.8,29.96,NNE,32,4.0,7.0,65,0.00,,,0.00,0,Wunderground v.1.15,2013-02-16 08:46:00,
2013-02-16 03:52:00,43.8,32.8,29.96,North,359,4.0,8.0,65,0.00,,,0.00,0,Wunderground v.1.15,2013-02-16 08:52:00,
2013-02-16 03:58:00,43.8,32.8,29.96,NNW,346,4.0,8.0,65,0.00,,,0.00,0,Wunderground v.1.15,2013-02-16 08:58:00,
2013-02-16 04:04:00,43.6,33.0,29.96,NW,316,3.0,4.0,66,0.00,,,0.00,0,Wunderground v.1.15,2013-02-16 09:04:00,
2013-02-16 04:10:00,43.5,32.9,29.96,NNE,28,4.0,4.0,66,0.00,,,0.00,0,Wunderground v.1.15,2013-02-16 09:10:00,
2013-02-16 04:16:00,43.5,32.9,29.96,North,10,4.0,5.0,66,0.00,,,0.00,0,Wunderground v.1.15,2013-02-16 09:16:00,
2013-02-16 04:22:00,43.5,32.9,29.96,NNE,23,3.0,5.0,66,0.00,,,0.00,0,Wunderground v.1.15,2013-02-16 09:22:00,
2013-02-16 04:28:00,43.3,33.1,29.96,North,1,3.0,5.0,67,0.00,,,0.00,0,Wunderground v.1.15,2013-02-16 09:28:00,
2013-02-16 04:34:00,43.3,33.1,29.96,NE,41,3.0,4.0,67,0.00,,,0.00,0,Wunderground v.1.15,2013-02-16 09:34:00,
2013-02-16 04:40:00,43.3,33.1,29.96,North,6,3.0,3.0,67,0.00,,,0.00,0,Wunderground v.1.15,2013-02-16 09:40:00,
2013-02-16 04:46:00,43.2,33.0,29.96,North,359,3.0,3.0,67,0.00,,,0.00,0,Wunderground v.1.15,2013-02-16 09:46:00,
2013-02-16 04:52:00,43.2,33.3,29.96,North,352,2.0,5.0,68,0.00,,,0.00,0,Wunderground v.1.15,2013-02-16 09:52:00,
2013-02-16 04:58:00,43.1,33.3,29.96,NE,34,3.0,5.0,68,0.00,,,0.00,0,Wunderground v.1.15,2013-02-16 09:58:00,
2013-02-16 05:04:00,43.1,33.3,29.95,NNE,30,4.0,5.0,68,0.00,,,0.00,0,Wunderground v.1.15,2013-02-16 10:04:00,
2013-02-16 05:10:00,42.9,33.1,29.95,North,359,3.0,3.0,68,0.00,,,0.00,0,Wunderground v.1.15,2013-02-16 10:10:00,
2013-02-16 05:16:00,42.9,33.4,29.96,North,357,3.0,6.0,69,0.00,,,0.00,0,Wunderground v.1.15,2013-02-16 10:16:00,
2013-02-16 05:22:00,42.8,33.3,29.96,North,0,4.0,6.0,69,0.00,,,0.00,0,Wunderground v.1.15,2013-02-16 10:22:00,
2013-02-16 05:28:00,42.8,33.3,29.96,NNE,20,4.0,6.0,69,0.00,,,0.00,0,Wunderground v.1.15,2013-02-16 10:28:00,
2013-02-16 05:34:00,42.6,33.1,29.95,NNE,28,4.0,5.0,69,0.00,,,0.00,0,Wunderground v.1.15,2013-02-16 10:34:00,
2013-02-16 05:40:00,42.6,33.5,29.95,NE,37,5.0,5.0,70,0.00,,,0.00,0,Wunderground v.1.15,2013-02-16 10:40:00,
2013-02-16 05:46:00,42.5,33.4,29.94,NE,37,4.0,5.0,70,0.00,,,0.00,0,Wunderground v.1.15,2013-02-16 10:46:00,
2013-02-16 05:52:00,42.3,33.6,29.94,North,0,4.0,4.0,71,0.00,,,0.00,0,Wunderground v.1.15,2013-02-16 10:52:00,
2013-02-16 05:58:00,42.3,33.6,29.94,North,10,3.0,4.0,71,0.00,,,0.00,0,Wunderground v.1.15,2013-02-16 10:58:00,
2013-02-16 06:04:00,42.2,33.8,29.93,NE,42,3.0,5.0,72,0.00,,,0.00,0,Wunderground v.1.15,2013-02-16 11:04:00,
2013-02-16 06:10:00,42.1,33.7,29.93,NNE,18,3.0,3.0,72,0.00,,,0.00,0,Wunderground v.1.15,2013-02-16 11:10:00,
2013-02-16 06:16:00,42.1,34.1,29.93,NNE,13,3.0,3.0,73,0.00,,,0.00,0,Wunderground v.1.15,2013-02-16 11:16:00,
2013-02-16 06:22:00,41.9,33.9,29.93,NNE,25,3.0,3.0,73,0.00,,,0.00,0,Wunderground v.1.15,2013-02-16 11:22:00,
2013-02-16 06:28:00,41.8,34.1,29.93,NNE,23,4.0,6.0,74,0.00,,,0.00,0,Wunderground v.1.15,2013-02-16 11:28:00,
2013-02-16 06:34:00,41.6,34.3,29.93,North,0,4.0,4.0,75,0.00,,,0.00,0,Wunderground v.1.15,2013-02-16 11:34:00,
2013-02-16 06:40:00,41.3,34.3,29.93,North,0,2.0,2.0,76,0.00,,,0.00,0,Wunderground v.1.15,2013-02-16 11:40:00,
2013-02-16 06:46:00,41.2,34.2,29.94,NNE,23,2.0,5.0,76,0.00,,,0.00,0,Wunderground v.1.15,2013-02-16 11:46:00,
2013-02-16 06:52:00,41.1,34.4,29.94,NNE,16,3.0,6.0,77,0.00,,,0.00,0,Wunderground v.1.15,2013-02-16 11:52:00,
2013-02-16 06:58:00,40.9,34.2,29.94,NNE,25,3.0,6.0,77,0.00,,,0.00,0,Wunderground v.1.15,2013-02-16 11:58:00,
2013-02-16 07:04:00,40.8,34.5,29.93,North,3,3.0,3.0,78,0.00,,,0.00,5,Wunderground v.1.15,2013-02-16 12:04:00,
2013-02-16 07:10:00,40.6,34.3,29.93,North,359,3.0,3.0,78,0.00,,,0.00,7,Wunderground v.1.15,2013-02-16 12:10:00,
2013-02-16 07:16:00,40.6,34.3,29.93,NNE,13,3.0,3.0,78,0.00,,,0.00,21,Wunderground v.1.15,2013-02-16 12:16:00,
2013-02-16 07:22:00,40.6,34.6,29.93,North,359,3.0,3.0,79,0.00,,,0.00,28,Wunderground v.1.15,2013-02-16 12:22:00,
2013-02-16 07:28:00,40.8,34.8,29.93,North,357,3.0,4.0,79,0.00,,,0.00,32,Wunderground v.1.15,2013-02-16 12:28:00,
2013-02-16 07:34:00,40.9,34.9,29.94,North,0,3.0,3.0,79,0.00,,,0.00,37,Wunderground v.1.15,2013-02-16 12:34:00,
2013-02-16 07:40:00,41.1,35.1,29.94,North,352,2.0,3.0,79,0.00,,,0.00,37,Wunderground v.1.15,2013-02-16 12:40:00,
2013-02-16 07:46:00,41.2,35.5,29.95,NE,35,2.0,2.0,80,0.00,,,0.00,32,Wunderground v.1.15,2013-02-16 12:46:00,
2013-02-16 07:52:00,41.3,35.3,29.95,NE,35,3.0,7.0,79,0.00,,,0.00,40,Wunderground v.1.15,2013-02-16 12:52:00,
2013-02-16 07:58:00,41.5,35.5,29.95,NNE,25,4.0,7.0,79,0.00,,,0.00,28,Wunderground v.1.15,2013-02-16 12:58:00,
2013-02-16 08:04:00,41.5,35.5,29.95,North,350,4.0,4.0,79,0.00,,,0.00,28,Wunderground v.1.15,2013-02-16 13:04:00,
2013-02-16 08:10:00,41.5,35.8,29.95,North,349,5.0,6.0,80,0.00,,,0.00,14,Wunderground v.1.15,2013-02-16 13:10:00,
2013-02-16 08:16:00,41.2,35.8,29.95,North,357,6.0,6.0,81,0.00,,,0.00,14,Wunderground v.1.15,2013-02-16 13:16:00,
2013-02-16 08:22:00,41.1,36.0,29.95,NW,322,5.0,5.0,82,0.00,,,0.00,25,Wunderground v.1.15,2013-02-16 13:22:00,
2013-02-16 08:28:00,40.5,36.0,29.95,NW,315,6.0,10.0,84,0.00,,,0.00,16,Wunderground v.1.15,2013-02-16 13:28:00,
2013-02-16 08:34:00,40.2,35.8,29.96,North,359,5.0,7.0,84,0.00,,,0.00,21,Wunderground v.1.15,2013-02-16 13:34:00,
2013-02-16 08:40:00,39.9,36.1,29.96,NW,315,6.0,9.0,86,0.00,,,0.01,16,Wunderground v.1.15,2013-02-16 13:40:00,
2013-02-16 08:46:00,39.5,36.0,29.96,North,352,7.0,10.0,87,0.00,,,0.01,23,Wunderground v.1.15,2013-02-16 13:46:00,
2013-02-16 08:52:00,39.2,35.9,29.96,North,349,7.0,10.0,88,0.00,,,0.01,37,Wunderground v.1.15,2013-02-16 13:52:00,
2013-02-16 08:58:00,39.1,36.1,29.96,NNW,346,7.0,10.0,89,0.00,,,0.01,49,Wunderground v.1.15,2013-02-16 13:58:00,
2013-02-16 09:04:00,38.8,36.1,29.95,North,350,6.0,8.0,90,0.00,,,0.01,35,Wunderground v.1.15,2013-02-16 14:04:00,
2013-02-16 09:10:00,38.6,35.9,29.95,NW,313,7.0,7.0,90,0.00,,,0.01,65,Wunderground v.1.15,2013-02-16 14:10:00,
2013-02-16 09:16:00,38.5,36.1,29.95,North,350,6.0,7.0,91,0.00,,,0.02,25,Wunderground v.1.15,2013-02-16 14:16:00,
2013-02-16 09:22:00,38.5,36.1,29.95,NNW,347,6.0,10.0,91,0.00,,,0.02,28,Wunderground v.1.15,2013-02-16 14:22:00,
2013-02-16 09:28:00,37.9,35.5,29.95,North,0,7.0,10.0,91,0.00,,,0.02,46,Wunderground v.1.15,2013-02-16 14:28:00,
2013-02-16 09:34:00,37.8,35.4,29.95,North,359,7.0,7.0,91,0.04,,,0.03,49,Wunderground v.1.15,2013-02-16 14:34:00,
2013-02-16 09:40:00,37.3,35.2,29.95,North,0,7.0,7.0,92,0.06,,,0.04,35,Wunderground v.1.15,2013-02-16 14:40:00,
2013-02-16 09:46:00,37.0,34.9,29.95,North,357,7.0,12.0,92,0.06,,,0.04,32,Wunderground v.1.15,2013-02-16 14:46:00,
2013-02-16 09:52:00,37.0,35.2,29.95,NNW,330,6.0,7.0,93,0.04,,,0.04,26,Wunderground v.1.15,2013-02-16 14:52:00,
2013-02-16 09:58:00,36.8,35.0,29.95,North,350,6.0,10.0,93,0.04,,,0.05,35,Wunderground v.1.15,2013-02-16 14:58:00,
2013-02-16 10:04:00,36.5,34.7,29.97,NNW,346,6.0,10.0,93,0.06,,,0.06,39,Wunderground v.1.15,2013-02-16 15:04:00,
2013-02-16 10:10:00,36.2,34.4,29.97,North,0,8.0,8.0,93,0.09,,,0.07,51,Wunderground v.1.15,2013-02-16 15:10:00,
2013-02-16 10:16:00,35.9,34.1,29.95,NW,313,6.0,8.0,93,0.10,,,0.08,55,Wunderground v.1.15,2013-02-16 15:16:00,
2013-02-16 10:22:00,35.6,34.0,29.95,North,359,5.0,6.0,94,0.14,,,0.09,65,Wunderground v.1.15,2013-02-16 15:22:00,
2013-02-16 10:28:00,35.5,33.9,29.95,NE,49,4.0,6.0,94,0.10,,,0.10,77,Wunderground v.1.15,2013-02-16 15:28:00,
2013-02-16 10:34:00,35.2,33.6,29.95,NNE,32,4.0,6.0,94,0.08,,,0.11,77,Wunderground v.1.15,2013-02-16 15:34:00,
2013-02-16 10:40:00,35.2,33.6,29.95,NE,35,4.0,5.0,94,0.08,,,0.11,58,Wunderground v.1.15,2013-02-16 15:40:00,
2013-02-16 10:46:00,35.0,33.4,29.95,NNE,18,4.0,5.0,94,0.05,,,0.11,70,Wunderground v.1.15,2013-02-16 15:46:00,
2013-02-16 10:52:00,34.9,33.3,29.95,North,3,4.0,5.0,94,0.04,,,0.12,91,Wunderground v.1.15,2013-02-16 15:52:00,
2013-02-16 10:58:00,34.6,33.3,29.95,North,4,4.0,5.0,95,0.04,,,0.12,86,Wunderground v.1.15,2013-02-16 15:58:00,
2013-02-16 11:04:00,34.4,33.1,29.95,NNW,342,4.0,5.0,95,0.05,,,0.13,74,Wunderground v.1.15,2013-02-16 16:04:00,
2013-02-16 11:10:00,34.3,33.0,29.95,North,10,4.0,5.0,95,0.06,,,0.13,69,Wunderground v.1.15,2013-02-16 16:10:00,
2013-02-16 11:16:00,34.1,32.8,29.94,NNW,335,3.0,5.0,95,0.06,,,0.14,76,Wunderground v.1.15,2013-02-16 16:16:00,
2013-02-16 11:22:00,34.0,32.7,29.94,NW,318,3.0,4.0,95,0.05,,,0.14,81,Wunderground v.1.15,2013-02-16 16:22:00,
2013-02-16 11:28:00,34.0,32.7,29.94,North,352,2.0,5.0,95,0.05,,,0.15,79,Wunderground v.1.15,2013-02-16 16:28:00,
2013-02-16 11:34:00,33.8,32.5,29.94,North,7,3.0,5.0,95,0.05,,,0.15,79,Wunderground v.1.15,2013-02-16 16:34:00,
2013-02-16 11:40:00,33.7,32.4,29.94,NNW,337,3.0,5.0,95,0.05,,,0.16,76,Wunderground v.1.15,2013-02-16 16:40:00,
2013-02-16 11:46:00,33.7,32.7,29.94,North,359,3.0,5.0,96,0.06,,,0.16,77,Wunderground v.1.15,2013-02-16 16:46:00,
2013-02-16 11:52:00,33.7,32.7,29.94,NNW,347,2.0,4.0,96,0.06,,,0.17,69,Wunderground v.1.15,2013-02-16 16:52:00,
2013-02-16 11:58:00,33.5,32.5,29.94,North,350,3.0,5.0,96,0.05,,,0.17,65,Wunderground v.1.15,2013-02-16 16:58:00,
2013-02-16 12:04:00,33.4,32.4,29.93,North,359,3.0,6.0,96,0.00,,,0.17,72,Wunderground v.1.15,2013-02-16 17:04:00,
2013-02-16 12:10:00,33.4,32.4,29.93,North,0,4.0,18.0,96,0.00,,,0.17,69,Wunderground v.1.15,2013-02-16 17:10:00,
2013-02-16 12:16:00,33.4,32.4,29.92,North,354,3.0,18.0,96,0.00,,,0.18,56,Wunderground v.1.15,2013-02-16 17:16:00,
2013-02-16 12:22:00,33.4,32.4,29.92,NNW,339,3.0,4.0,96,0.05,,,0.19,56,Wunderground v.1.15,2013-02-16 17:22:00,
2013-02-16 12:28:00,33.4,32.4,29.92,NW,325,4.0,5.0,96,0.05,,,0.19,55,Wunderground v.1.15,2013-02-16 17:28:00,
2013-02-16 12:34:00,33.4,32.4,29.92,NNE,31,4.0,5.0,96,0.05,,,0.19,48,Wunderground v.1.15,2013-02-16 17:34:00,
2013-02-16 12:40:00,33.2,32.2,29.92,NNE,28,4.0,4.0,96,0.00,,,0.19,55,Wunderground v.1.15,2013-02-16 17:40:00,
2013-02-16 12:46:00,33.2,32.2,29.89,NNE,24,3.0,5.0,96,0.00,,,0.20,67,Wunderground v.1.15,2013-02-16 17:46:00,
2013-02-16 12:52:00,33.2,32.2,29.89,NW,315,3.0,3.0,96,0.00,,,0.20,76,Wunderground v.1.15,2013-02-16 17:52:00,
2013-02-16 12:58:00,33.4,32.6,29.89,North,1,2.0,5.0,97,0.00,,,0.20,65,Wunderground v.1.15,2013-02-16 17:58:00,
2013-02-16 13:04:00,33.4,32.6,29.89,North,0,2.0,3.0,97,0.00,,,0.20,76,Wunderground v.1.15,2013-02-16 18:04:00,
2013-02-16 13:10:00,33.4,32.6,29.89,NNW,333,2.0,3.0,97,0.00,,,0.21,69,Wunderground v.1.15,2013-02-16 18:10:00,
2013-02-16 13:16:00,33.4,32.6,29.88,North,354,2.0,5.0,97,0.00,,,0.21,77,Wunderground v.1.15,2013-02-16 18:16:00,
2013-02-16 13:22:00,33.4,32.6,29.88,NW,315,3.0,3.0,97,0.05,,,0.22,86,Wunderground v.1.15,2013-02-16 18:22:00,
2013-02-16 13:28:00,33.5,32.7,29.88,NNE,30,4.0,5.0,97,0.07,,,0.23,128,Wunderground v.1.15,2013-02-16 18:28:00,
2013-02-16 13:34:00,33.7,32.9,29.88,North,11,4.0,4.0,97,0.09,,,0.24,116,Wunderground v.1.15,2013-02-16 18:34:00,
2013-02-16 13:40:00,34.0,33.2,29.88,NNE,21,3.0,4.0,97,0.09,,,0.25,153,Wunderground v.1.15,2013-02-16 18:40:00,
2013-02-16 13:46:00,34.1,33.3,29.88,ENE,58,4.0,7.0,97,0.09,,,0.26,123,Wunderground v.1.15,2013-02-16 18:46:00,
2013-02-16 13:52:00,34.4,33.6,29.88,North,10,3.0,3.0,97,0.09,,,0.26,141,Wunderground v.1.15,2013-02-16 18:52:00,
2013-02-16 13:58:00,34.4,33.6,29.88,North,0,4.0,7.0,97,0.08,,,0.27,111,Wunderground v.1.15,2013-02-16 18:58:00,
2013-02-16 14:04:00,34.4,33.6,29.87,NE,47,6.0,10.0,97,0.07,,,0.28,109,Wunderground v.1.15,2013-02-16 19:04:00,
2013-02-16 14:10:00,34.4,33.6,29.87,ENE,72,6.0,6.0,97,0.07,,,0.29,114,Wunderground v.1.15,2013-02-16 19:10:00,
2013-02-16 14:16:00,34.6,33.8,29.86,NNE,30,6.0,6.0,97,0.07,,,0.29,86,Wunderground v.1.15,2013-02-16 19:16:00,
2013-02-16 14:22:00,34.4,33.6,29.86,NE,40,5.0,7.0,97,0.05,,,0.30,76,Wunderground v.1.15,2013-02-16 19:22:00,
2013-02-16 14:28:00,34.6,33.8,29.86,NE,37,6.0,7.0,97,0.05,,,0.30,104,Wunderground v.1.15,2013-02-16 19:28:00,
2013-02-16 14:34:00,34.7,33.9,29.87,NNE,14,4.0,5.0,97,0.05,,,0.30,104,Wunderground v.1.15,2013-02-16 19:34:00,
2013-02-16 14:40:00,34.6,33.8,29.87,NW,305,4.0,7.0,97,0.05,,,0.31,56,Wunderground v.1.15,2013-02-16 19:40:00,
2013-02-16 14:46:00,34.6,33.8,29.87,NE,49,5.0,7.0,97,0.05,,,0.31,67,Wunderground v.1.15,2013-02-16 19:46:00,
2013-02-16 14:52:00,34.6,33.8,29.87,North,0,5.0,10.0,97,0.00,,,0.31,63,Wunderground v.1.15,2013-02-16 19:52:00,
2013-02-16 14:58:00,34.6,33.8,29.87,NNE,32,5.0,10.0,97,0.00,,,0.32,63,Wunderground v.1.15,2013-02-16 19:58:00,
2013-02-16 15:04:00,34.7,33.9,29.86,North,6,5.0,10.0,97,0.00,,,0.32,74,Wunderground v.1.15,2013-02-16 20:04:00,
2013-02-16 15:10:00,34.6,33.8,29.86,NNE,30,5.0,5.0,97,0.00,,,0.32,65,Wunderground v.1.15,2013-02-16 20:10:00,
2013-02-16 15:16:00,34.6,33.8,29.86,North,6,4.0,7.0,97,0.04,,,0.33,70,Wunderground v.1.15,2013-02-16 20:16:00,
2013-02-16 15:22:00,34.4,33.6,29.86,North,8,6.0,6.0,97,0.04,,,0.33,90,Wunderground v.1.15,2013-02-16 20:22:00,
2013-02-16 15:28:00,34.4,33.6,29.86,North,8,6.0,6.0,97,0.04,,,0.34,72,Wunderground v.1.15,2013-02-16 20:28:00,
2013-02-16 15:34:00,34.6,33.8,29.85,NNE,16,5.0,6.0,97,0.04,,,0.34,88,Wunderground v.1.15,2013-02-16 20:34:00,
2013-02-16 15:40:00,34.6,33.8,29.85,North,349,5.0,5.0,97,0.04,,,0.34,88,Wunderground v.1.15,2013-02-16 20:40:00,
2013-02-16 15:46:00,34.6,33.8,29.85,North,359,4.0,5.0,97,0.00,,,0.35,53,Wunderground v.1.15,2013-02-16 20:46:00,
2013-02-16 15:52:00,34.6,33.8,29.85,NNW,330,3.0,3.0,97,0.00,,,0.35,35,Wunderground v.1.15,2013-02-16 20:52:00,
2013-02-16 15:58:00,34.4,33.6,29.85,NNW,336,3.0,5.0,97,0.00,,,0.35,35,Wunderground v.1.15,2013-02-16 20:58:00,
2013-02-16 16:04:00,34.3,33.5,29.85,NNW,339,4.0,4.0,97,0.00,,,0.35,37,Wunderground v.1.15,2013-02-16 21:04:00,
2013-02-16 16:10:00,34.1,33.3,29.85,North,354,4.0,4.0,97,0.00,,,0.36,48,Wunderground v.1.15,2013-02-16 21:10:00,
2013-02-16 16:16:00,34.1,33.3,29.86,North,0,4.0,5.0,97,0.00,,,0.36,39,Wunderground v.1.15,2013-02-16 21:16:00,
2013-02-16 16:22:00,34.1,33.3,29.86,North,359,4.0,5.0,97,0.04,,,0.37,35,Wunderground v.1.15,2013-02-16 21:22:00,
2013-02-16 16:28:00,34.1,33.3,29.86,NNW,332,3.0,5.0,97,0.04,,,0.37,28,Wunderground v.1.15,2013-02-16 21:28:00,
2013-02-16 16:34:00,34.0,33.2,29.86,East,99,4.0,5.0,97,0.04,,,0.37,33,Wunderground v.1.15,2013-02-16 21:34:00,
2013-02-16 16:40:00,34.0,33.2,29.86,North,350,5.0,5.0,97,0.00,,,0.37,28,Wunderground v.1.15,2013-02-16 21:40:00,
2013-02-16 16:46:00,34.0,33.2,29.86,North,0,5.0,7.0,97,0.00,,,0.37,33,Wunderground v.1.15,2013-02-16 21:46:00,
2013-02-16 16:52:00,33.8,33.0,29.86,NNW,330,6.0,8.0,97,0.00,,,0.37,39,Wunderground v.1.15,2013-02-16 21:52:00,
2013-02-16 16:58:00,33.8,33.0,29.86,NE,54,6.0,10.0,97,0.00,,,0.38,32,Wunderground v.1.15,2013-02-16 21:58:00,
2013-02-16 17:04:00,34.0,33.2,29.85,NNW,347,7.0,10.0,97,0.00,,,0.38,28,Wunderground v.1.15,2013-02-16 22:04:00,
2013-02-16 17:10:00,34.0,33.2,29.85,NNW,328,6.0,10.0,97,0.00,,,0.38,30,Wunderground v.1.15,2013-02-16 22:10:00,
2013-02-16 17:16:00,34.0,33.2,29.85,North,352,6.0,10.0,97,0.00,,,0.38,26,Wunderground v.1.15,2013-02-16 22:16:00,
2013-02-16 17:22:00,34.0,33.2,29.85,NNW,328,6.0,7.0,97,0.00,,,0.38,23,Wunderground v.1.15,2013-02-16 22:22:00,
2013-02-16 17:28:00,34.0,33.0,29.85,NE,38,6.0,10.0,96,0.00,,,0.38,23,Wunderground v.1.15,2013-02-16 22:28:00,
2013-02-16 17:34:00,34.0,33.0,29.85,NNE,31,5.0,6.0,96,0.00,,,0.38,11,Wunderground v.1.15,2013-02-16 22:34:00,
2013-02-16 17:40:00,33.8,32.8,29.85,WNW,302,6.0,9.0,96,0.00,,,0.38,9,Wunderground v.1.15,2013-02-16 22:40:00,
2013-02-16 17:46:00,33.8,32.8,29.85,North,350,7.0,10.0,96,0.00,,,0.38,7,Wunderground v.1.15,2013-02-16 22:46:00,
2013-02-16 17:52:00,33.7,32.7,29.85,North,356,7.0,7.0,96,0.00,,,0.38,5,Wunderground v.1.15,2013-02-16 22:52:00,
2013-02-16 17:58:00,33.7,32.7,29.85,NNE,17,7.0,7.0,96,0.00,,,0.38,0,Wunderground v.1.15,2013-02-16 22:58:00,
2013-02-16 18:04:00,33.5,32.5,29.84,North,354,8.0,8.0,96,0.00,,,0.38,0,Wunderground v.1.15,2013-02-16 23:04:00,
2013-02-16 18:10:00,33.5,32.5,29.84,North,1,9.0,9.0,96,0.00,,,0.38,0,Wunderground v.1.15,2013-02-16 23:10:00,
2013-02-16 18:16:00,33.5,32.2,29.85,North,0,6.0,9.0,95,0.00,,,0.38,0,Wunderground v.1.15,2013-02-16 23:16:00,
2013-02-16 18:22:00,33.5,32.2,29.85,North,359,6.0,7.0,95,0.00,,,0.38,0,Wunderground v.1.15,2013-02-16 23:22:00,
2013-02-16 18:28:00,33.5,32.2,29.85,NNW,336,8.0,10.0,95,0.00,,,0.38,0,Wunderground v.1.15,2013-02-16 23:28:00,
2013-02-16 18:34:00,33.7,32.4,29.86,North,352,7.0,9.0,95,0.00,,,0.38,0,Wunderground v.1.15,2013-02-16 23:34:00,
2013-02-16 18:40:00,33.7,32.4,29.86,North,349,6.0,9.0,95,0.00,,,0.38,0,Wunderground v.1.15,2013-02-16 23:40:00,
2013-02-16 18:46:00,33.5,32.2,29.87,WNW,302,7.0,9.0,95,0.00,,,0.38,0,Wunderground v.1.15,2013-02-16 23:46:00,
2013-02-16 18:52:00,33.5,32.2,29.87,North,349,7.0,7.0,95,0.00,,,0.38,0,Wunderground v.1.15,2013-02-16 23:52:00,
2013-02-16 18:58:00,33.4,32.1,29.87,NW,313,7.0,8.0,95,0.00,,,0.38,0,Wunderground v.1.15,2013-02-16 23:58:00,
2013-02-16 19:04:00,33.4,32.1,29.86,NNW,346,6.0,9.0,95,0.00,,,0.38,0,Wunderground v.1.15,2013-02-17 00:04:00,
2013-02-16 19:10:00,33.4,32.1,29.86,NNE,30,7.0,7.0,95,0.00,,,0.38,0,Wunderground v.1.15,2013-02-17 00:10:00,
2013-02-16 19:16:00,33.2,31.9,29.86,NNW,330,7.0,7.0,95,0.00,,,0.38,0,Wunderground v.1.15,2013-02-17 00:16:00,
2013-02-16 19:22:00,33.2,31.9,29.86,North,349,8.0,10.0,95,0.00,,,0.38,0,Wunderground v.1.15,2013-02-17 00:22:00,
2013-02-16 19:28:00,33.2,31.9,29.86,NNE,18,6.0,10.0,95,0.00,,,0.38,0,Wunderground v.1.15,2013-02-17 00:28:00,
2013-02-16 19:34:00,33.2,31.9,29.86,North,349,6.0,8.0,95,0.00,,,0.38,0,Wunderground v.1.15,2013-02-17 00:34:00,
2013-02-16 19:40:00,33.2,31.9,29.86,NNW,340,6.0,7.0,95,0.00,,,0.39,0,Wunderground v.1.15,2013-02-17 00:40:00,
2013-02-16 19:46:00,33.2,31.9,29.87,North,350,7.0,10.0,95,0.00,,,0.39,0,Wunderground v.1.15,2013-02-17 00:46:00,
2013-02-16 19:52:00,33.4,32.1,29.87,NW,313,6.0,7.0,95,0.00,,,0.39,0,Wunderground v.1.15,2013-02-17 00:52:00,
2013-02-16 19:58:00,33.4,32.1,29.87,NW,325,6.0,8.0,95,0.00,,,0.39,0,Wunderground v.1.15,2013-02-17 00:58:00,
2013-02-16 20:04:00,33.2,31.9,29.88,NNW,333,7.0,7.0,95,0.00,,,0.39,0,Wunderground v.1.15,2013-02-17 01:04:00,
2013-02-16 20:10:00,33.2,31.9,29.88,NNW,346,7.0,11.0,95,0.00,,,0.39,0,Wunderground v.1.15,2013-02-17 01:10:00,
2013-02-16 20:16:00,33.2,31.9,29.88,NNW,342,7.0,11.0,95,0.00,,,0.39,0,Wunderground v.1.15,2013-02-17 01:16:00,
2013-02-16 20:22:00,33.2,31.9,29.88,NNW,332,5.0,6.0,95,0.00,,,0.39,0,Wunderground v.1.15,2013-02-17 01:22:00,
2013-02-16 20:28:00,33.2,31.9,29.88,North,3,6.0,10.0,95,0.00,,,0.39,0,Wunderground v.1.15,2013-02-17 01:28:00,
2013-02-16 20:34:00,33.2,31.9,29.88,North,354,6.0,8.0,95,0.00,,,0.39,0,Wunderground v.1.15,2013-02-17 01:34:00,
2013-02-16 20:40:00,33.2,31.9,29.88,North,359,5.0,6.0,95,0.00,,,0.39,0,Wunderground v.1.15,2013-02-17 01:40:00,
2013-02-16 20:46:00,33.2,31.9,29.88,North,359,5.0,7.0,95,0.00,,,0.39,0,Wunderground v.1.15,2013-02-17 01:46:00,
2013-02-16 20:52:00,33.2,31.9,29.88,North,0,5.0,5.0,95,0.00,,,0.39,0,Wunderground v.1.15,2013-02-17 01:52:00,
2013-02-16 20:58:00,33.2,31.9,29.88,NNW,337,4.0,7.0,95,0.00,,,0.39,0,Wunderground v.1.15,2013-02-17 01:58:00,
2013-02-16 21:04:00,33.2,31.9,29.88,North,359,4.0,6.0,95,0.00,,,0.39,0,Wunderground v.1.15,2013-02-17 02:04:00,
2013-02-16 21:10:00,33.2,31.9,29.88,North,0,5.0,5.0,95,0.00,,,0.39,0,Wunderground v.1.15,2013-02-17 02:10:00,
2013-02-16 21:16:00,33.2,31.9,29.89,North,352,5.0,5.0,95,0.00,,,0.39,0,Wunderground v.1.15,2013-02-17 02:16:00,
2013-02-16 21:22:00,33.2,31.9,29.89,NNW,337,6.0,11.0,95,0.00,,,0.39,0,Wunderground v.1.15,2013-02-17 02:22:00,
2013-02-16 21:28:00,33.2,31.7,29.89,NNE,18,6.0,11.0,94,0.00,,,0.39,0,Wunderground v.1.15,2013-02-17 02:28:00,
2013-02-16 21:34:00,33.2,31.7,29.89,North,6,6.0,7.0,94,0.00,,,0.39,0,Wunderground v.1.15,2013-02-17 02:34:00,
2013-02-16 21:40:00,33.2,31.7,29.89,NNW,332,6.0,6.0,94,0.00,,,0.39,0,Wunderground v.1.15,2013-02-17 02:40:00,
2013-02-16 21:46:00,33.2,31.7,29.90,NNW,343,5.0,7.0,94,0.00,,,0.39,0,Wunderground v.1.15,2013-02-17 02:46:00,
2013-02-16 21:52:00,33.2,31.7,29.90,NNW,336,5.0,7.0,94,0.00,,,0.39,0,Wunderground v.1.15,2013-02-17 02:52:00,
2013-02-16 21:58:00,33.2,31.7,29.90,North,349,6.0,7.0,94,0.00,,,0.39,0,Wunderground v.1.15,2013-02-17 02:58:00,
2013-02-16 22:04:00,33.2,31.4,29.91,North,357,7.0,7.0,93,0.00,,,0.39,0,Wunderground v.1.15,2013-02-17 03:04:00,
2013-02-16 22:10:00,33.2,31.4,29.91,North,349,7.0,14.0,93,0.00,,,0.39,0,Wunderground v.1.15,2013-02-17 03:10:00,
2013-02-16 22:16:00,33.2,31.4,29.91,North,353,8.0,14.0,93,0.00,,,0.39,0,Wunderground v.1.15,2013-02-17 03:16:00,
2013-02-16 22:22:00,33.2,31.1,29.91,North,359,8.0,10.0,92,0.00,,,0.39,0,Wunderground v.1.15,2013-02-17 03:22:00,
2013-02-16 22:28:00,33.2,31.1,29.91,NW,313,8.0,14.0,92,0.00,,,0.39,0,Wunderground v.1.15,2013-02-17 03:28:00,
2013-02-16 22:34:00,33.2,30.9,29.91,North,1,8.0,9.0,91,0.00,,,0.39,0,Wunderground v.1.15,2013-02-17 03:34:00,
2013-02-16 22:40:00,33.2,30.9,29.91,North,359,6.0,6.0,91,0.00,,,0.39,0,Wunderground v.1.15,2013-02-17 03:40:00,
2013-02-16 22:46:00,33.2,30.9,29.91,NW,325,6.0,6.0,91,0.00,,,0.39,0,Wunderground v.1.15,2013-02-17 03:46:00,
2013-02-16 22:52:00,33.1,31.0,29.91,North,350,4.0,5.0,92,0.00,,,0.39,0,Wunderground v.1.15,2013-02-17 03:52:00,
2013-02-16 22:58:00,33.1,31.0,29.91,NNW,330,3.0,6.0,92,0.00,,,0.39,0,Wunderground v.1.15,2013-02-17 03:58:00,
2013-02-16 23:04:00,33.1,31.3,29.91,North,352,3.0,5.0,93,0.00,,,0.39,0,Wunderground v.1.15,2013-02-17 04:04:00,
2013-02-16 23:10:00,32.9,31.1,29.91,North,3,5.0,10.0,93,0.00,,,0.39,0,Wunderground v.1.15,2013-02-17 04:10:00,
2013-02-16 23:16:00,32.2,30.4,29.91,North,0,8.0,11.0,93,0.00,,,0.39,0,Wunderground v.1.15,2013-02-17 04:16:00,
2013-02-16 23:22:00,31.8,30.0,29.91,North,356,9.0,9.0,93,0.00,,,0.39,0,Wunderground v.1.15,2013-02-17 04:22:00,
2013-02-16 23:28:00,31.8,30.5,29.91,North,354,7.0,9.0,95,0.00,,,0.39,0,Wunderground v.1.15,2013-02-17 04:28:00,
2013-02-16 23:34:00,31.5,30.2,29.92,North,354,7.0,17.0,95,0.00,,,0.39,0,Wunderground v.1.15,2013-02-17 04:34:00,
2013-02-16 23:40:00,31.2,29.9,29.92,North,359,9.0,9.0,95,0.00,,,0.39,0,Wunderground v.1.15,2013-02-17 04:40:00,
2013-02-16 23:46:00,31.0,29.7,29.93,North,352,8.0,11.0,95,0.00,,,0.39,0,Wunderground v.1.15,2013-02-17 04:46:00,
2013-02-16 23:52:00,30.9,29.6,29.93,NNW,335,9.0,11.0,95,0.00,,,0.39,0,Wunderground v.1.15,2013-02-17 04:52:00,
2013-02-16 23:58:00,30.7,29.4,29.93,NNW,332,8.0,11.0,95,0.00,,,0.39,0,Wunderground v.1.15,2013-02-17 04:58:00,